Beaver Island, MI

7:19 PM EDT on June 27, 2017 (GMT -0400)
Beaver Island

Weather History for KSJX - July, 2013

Change the Weather History Date:

Monday, July 22, 2013

  Actual Average Record
Temperature  
Mean Temperature 67 °F -  
Max Temperature 76 °F 77 °F 88 °F (1983)
Min Temperature 58 °F 56 °F 45 °F (1958)
Cooling Degree Days 2    
Growing Degree Days 17 (Base 50)    
Moisture  
Dew Point 59 °F    
Average Humidity 76    
Maximum Humidity 96    
Minimum Humidity 58    
Precipitation  
Precipitation 0.00 in - - ()
Sea Level Pressure  
Sea Level Pressure 29.80 in    
Wind  
Wind Speed 7 mph (South)    
Max Wind Speed 17 mph    
Max Gust Speed 26 mph    
Visibility 10 miles    
Events      
Averages and records for this station are not official NWS values.
T = Trace of Precipitation, MM = Missing Value Source: NWS Daily Summary

Daily Weather History Graph

Daily Weather History Graph

Search for Another Location

Airport or City:

Trip Planner

Search our weather history database for the weather conditions in past years. The results will help you decide how hot, cold, wet, or windy it might be!

Date:

Astronomy

Jul. 22, 2013 Rise Set
Actual Time 6:14 AM EDT 9:22 PM EDT
Civil Twilight 5:38 AM EDT 9:57 PM EDT
Nautical Twilight 4:52 AM EDT 10:43 PM EDT
Astronomical Twilight 3:56 AM EDT 11:39 PM EDT
Moon 9:02 PM EDT (7/22) 6:13 AM EDT (7/22)
Length of Visible Light 16h 18m
Length of Day
15h 07m
Full, 100% of the Moon is Illuminated
Jul 22
Full
Jul 22
Full
Jul 29
Last Quarter
Aug 6
New
Aug 14
First Quarter

Hourly Weather History & Observations

Time (EDT) Temp. Dew Point Humidity Pressure Visibility Wind Dir Wind Speed Gust Speed Precip Events Conditions
12:14 AM 61.3 °F 55.8 °F 82% 29.94 in 10.0 mi East 4.6 mph - N/A   Overcast
12:35 AM 61.7 °F 56.3 °F 82% 29.94 in 10.0 mi East 5.8 mph - N/A   Overcast
12:55 AM 61.7 °F 56.1 °F 82% 29.94 in 10.0 mi ESE 4.6 mph - N/A   Overcast
1:15 AM 61.7 °F 55.8 °F 81% 29.94 in 10.0 mi SE 5.8 mph - N/A   Overcast
1:35 AM 61.7 °F 55.6 °F 80% 29.94 in 10.0 mi ESE 4.6 mph - N/A   Overcast
1:54 AM 61.5 °F 55.9 °F 82% 29.93 in 10.0 mi ESE 4.6 mph - N/A   Overcast
2:15 AM 61.2 °F 56.5 °F 85% 29.93 in 10.0 mi ESE 3.5 mph - N/A   Overcast
2:35 AM 61.0 °F 56.8 °F 86% 29.93 in 10.0 mi Calm Calm - N/A   Overcast
2:54 AM 60.8 °F 57.2 °F 88% 29.92 in 10.0 mi SE 3.5 mph - N/A   Overcast
3:15 AM 60.4 °F 57.2 °F 89% 29.92 in 10.0 mi East 3.5 mph - N/A   Overcast
3:35 AM 59.9 °F 57.2 °F 91% 29.91 in 10.0 mi ESE 4.6 mph - N/A   Overcast
3:55 AM 59.4 °F 56.3 °F 90% 29.90 in 10.0 mi ESE 5.8 mph - N/A   Scattered Clouds
4:15 AM 58.6 °F 55.4 °F 89% 29.89 in 10.0 mi ESE 3.5 mph - N/A   Clear
4:35 AM 58.1 °F 55.4 °F 91% 29.89 in 10.0 mi ESE 4.6 mph - N/A   Clear
4:55 AM 58.1 °F 55.4 °F 91% 29.88 in 10.0 mi SE 5.8 mph - N/A   Clear
5:15 AM 58.3 °F 55.6 °F 91% 29.88 in 10.0 mi SE 5.8 mph - N/A   Clear
5:35 AM 58.1 °F 55.8 °F 92% 29.88 in 10.0 mi SE 4.6 mph - N/A   Clear
5:55 AM 58.1 °F 56.5 °F 94% 29.88 in 10.0 mi SSE 3.5 mph - N/A   Clear
6:15 AM 58.5 °F 57.2 °F 96% 29.87 in 10.0 mi SE 3.5 mph - N/A   Clear
6:34 AM 59.0 °F 57.6 °F 95% 29.87 in 10.0 mi South 3.5 mph - N/A   Clear
6:55 AM 59.4 °F 58.1 °F 96% 29.86 in 10.0 mi SSE 4.6 mph - N/A   Clear
7:15 AM 60.6 °F 58.1 °F 91% 29.86 in 10.0 mi SSE 5.8 mph - N/A   Clear
7:35 AM 61.7 °F 58.1 °F 88% 29.86 in 10.0 mi South 4.6 mph - N/A   Clear
7:55 AM 63.0 °F 58.1 °F 84% 29.86 in 10.0 mi South 5.8 mph - N/A   Clear
8:15 AM 64.0 °F 58.1 °F 81% 29.86 in 10.0 mi South 5.8 mph - N/A   Clear
8:35 AM 65.1 °F 58.1 °F 78% 29.87 in 10.0 mi South 8.1 mph - N/A   Clear
8:55 AM 66.0 °F 57.9 °F 75% 29.87 in 10.0 mi South 8.1 mph - N/A   Clear
9:15 AM 66.9 °F 57.9 °F 73% 29.86 in 10.0 mi SSW 8.1 mph - N/A   Clear
9:35 AM 68.0 °F 58.1 °F 71% 29.85 in 10.0 mi SSW 6.9 mph - N/A   Clear
9:55 AM 68.9 °F 57.6 °F 67% 29.84 in 10.0 mi SW 8.1 mph - N/A   Clear
10:14 AM 70.5 °F 58.1 °F 65% 29.84 in 10.0 mi South 6.9 mph - N/A   Clear
10:35 AM 70.7 °F 57.9 °F 64% 29.84 in 10.0 mi SSW 9.2 mph - N/A   Clear
10:55 AM 70.9 °F 57.0 °F 61% 29.84 in 10.0 mi SW 11.5 mph 17.3 mph N/A   Clear
11:15 AM 71.4 °F 57.4 °F 61% 29.83 in 10.0 mi SW 5.8 mph - N/A   Clear
11:35 AM 72.3 °F 56.8 °F 58% 29.82 in 10.0 mi SSW 12.7 mph 18.4 mph N/A   Clear
11:55 AM 72.5 °F 57.9 °F 60% 29.82 in 10.0 mi SSW 10.4 mph - N/A   Clear
12:15 PM 73.2 °F 58.5 °F 60% 29.82 in 10.0 mi SSW 10.4 mph 16.1 mph N/A   Clear
12:35 PM 73.0 °F 59.5 °F 62% 29.81 in 10.0 mi SSW 9.2 mph - N/A   Clear
12:54 PM 73.0 °F 59.9 °F 63% 29.80 in 10.0 mi SW 12.7 mph - N/A   Clear
1:15 PM 73.0 °F 60.1 °F 64% 29.81 in 10.0 mi SW 13.8 mph - N/A   Clear
1:35 PM 72.7 °F 59.7 °F 64% 29.80 in 10.0 mi SSW 13.8 mph 19.6 mph N/A   Clear
1:55 PM 73.4 °F 60.1 °F 63% 29.80 in 10.0 mi SW 12.7 mph 18.4 mph N/A   Clear
2:15 PM 71.8 °F 61.0 °F 69% 29.79 in 10.0 mi SSW 9.2 mph - N/A   Clear
2:35 PM 73.4 °F 60.6 °F 64% 29.78 in 10.0 mi SW 10.4 mph - N/A   Clear
2:55 PM 75.0 °F 60.8 °F 61% 29.76 in 10.0 mi SW 9.2 mph 16.1 mph N/A   Clear
3:15 PM 76.1 °F 61.2 °F 60% 29.76 in 10.0 mi SSW 9.2 mph - N/A   Clear
3:35 PM 75.2 °F 62.4 °F 64% 29.76 in 10.0 mi WSW 13.8 mph - N/A   Clear
3:55 PM 72.7 °F 61.9 °F 69% 29.75 in 10.0 mi SSW 10.4 mph 17.3 mph N/A   Clear
4:14 PM 72.9 °F 62.8 °F 71% 29.75 in 10.0 mi SW 12.7 mph 18.4 mph N/A   Clear
4:35 PM 71.6 °F 62.8 °F 74% 29.74 in 10.0 mi SW 13.8 mph 20.7 mph N/A   Clear
4:55 PM 72.0 °F 63.0 °F 73% 29.73 in 10.0 mi South 9.2 mph 18.4 mph N/A   Clear
5:15 PM 72.0 °F 63.3 °F 74% 29.73 in 10.0 mi SSW 12.7 mph 21.9 mph N/A   Clear
5:35 PM 70.7 °F 63.1 °F 77% 29.73 in 10.0 mi SW 12.7 mph 19.6 mph N/A   Clear
5:55 PM 69.3 °F 63.3 °F 81% 29.72 in 10.0 mi SSW 11.5 mph 16.1 mph N/A   Scattered Clouds
6:15 PM 68.9 °F 63.0 °F 81% 29.70 in 10.0 mi SSW 9.2 mph - N/A   Scattered Clouds
6:35 PM 70.2 °F 62.4 °F 76% 29.70 in 10.0 mi SSW 12.7 mph 17.3 mph N/A   Scattered Clouds
6:55 PM 70.3 °F 61.7 °F 74% 29.68 in 10.0 mi SSW 13.8 mph 20.7 mph N/A   Scattered Clouds
7:15 PM 70.7 °F 62.1 °F 74% 29.67 in 10.0 mi SSW 12.7 mph 19.6 mph N/A   Scattered Clouds
7:35 PM 70.9 °F 62.2 °F 74% 29.68 in 10.0 mi SSW 10.4 mph 21.9 mph N/A   Scattered Clouds
7:55 PM 69.4 °F 62.6 °F 79% 29.68 in 10.0 mi SSW 12.7 mph 20.7 mph N/A   Clear
8:14 PM 69.8 °F 62.1 °F 76% 29.68 in 10.0 mi SSW 12.7 mph 21.9 mph N/A   Scattered Clouds
8:35 PM 69.8 °F 62.1 °F 76% 29.68 in 10.0 mi SSW 12.7 mph 20.7 mph N/A   Mostly Cloudy
8:55 PM 69.6 °F 62.1 °F 77% 29.67 in 10.0 mi SSW 13.8 mph 26.5 mph N/A   Mostly Cloudy
9:15 PM 69.8 °F 61.9 °F 76% 29.66 in 10.0 mi SSW 15.0 mph 21.9 mph N/A   Overcast
9:35 PM 69.8 °F 61.7 °F 75% 29.65 in 10.0 mi SSW 11.5 mph 21.9 mph N/A   Mostly Cloudy
9:55 PM 70.3 °F 61.0 °F 72% 29.65 in 10.0 mi SSW 11.5 mph 23.0 mph N/A   Scattered Clouds
10:15 PM 70.2 °F 61.2 °F 73% 29.67 in 10.0 mi SSW 13.8 mph 21.9 mph N/A   Scattered Clouds
10:35 PM 69.8 °F 61.0 °F 73% 29.66 in 10.0 mi SSW 15.0 mph 20.7 mph N/A   Scattered Clouds
10:54 PM 70.0 °F 60.8 °F 73% 29.65 in 10.0 mi SSW 17.3 mph 23.0 mph N/A   Scattered Clouds
11:15 PM 70.3 °F 59.9 °F 69% 29.66 in 10.0 mi SSW 12.7 mph 23.0 mph N/A   Scattered Clouds
11:35 PM 70.5 °F 59.9 °F 69% 29.65 in 10.0 mi SSW 12.7 mph 21.9 mph N/A   Scattered Clouds
11:55 PM 70.3 °F 60.1 °F 70% 29.64 in 10.0 mi SSW 17.3 mph 23.0 mph N/A   Mostly Cloudy